Accueil
METAR-TAF:

METAR-TAF

Aéroports :

Stanly County Airport

Albemarle, Caroline du Nord, États-Unis

latitude: 35-25-00N, longitude: 080-09-03W, altitude: 186 m

Observation

Le bulletin a été fait il y a 42 minutes, à 15:55 UTC
Vent 5 kt de sud
Température 30°C
Humidité 62%
Pression 1025 hPa
Visibilité: 16.1 km
Nuages épars à une hauteur de 3000 ft

METAR: KVUJ 161555Z AUTO 17005KT 10SM SCT030 30/22 A3026 RMK AO2 T03030224

Heure: 12:37 (16:37 UTC)


TAF: absent

Observations et prévisions météorologiques de plus de 4000 aéroports (messages METAR et TAF).

Les stations disponibles sont représentées par des disques jaunes et rouges sur la carte.

Passer la souris dessus pour voir le nom de la station.

Cliquer dessus pour voir les observations et prévisions météorologiques.

Pour changer de carte: cliquez sur les boutons verts avec une croix noire pour zoomer, sur le bouton vert avec un tiret pour effectuer un zoom arrière, ou sur les flèches vertes pour les cartes adjacentes.


METAR-TAF: